Stündliche Wetter Warnoleka

Heute, 24 Oktober, Samstag

Zeit Temperatur Niederschläge Wind Luftdruck Luftfeuchtigkeit
00:00 +12°C° 0 mm 2 m/S 757 mmHg 95%
01:00 +12°C° 0 mm 2 m/S 757 mmHg 95%
02:00 +11°C° 0 mm 3 m/S 757 mmHg 95%
03:00 +10°C° 0 mm 3 m/S 757 mmHg 95%
04:00 +10°C° 0 mm 3 m/S 757 mmHg 95%
05:00 +10°C° 0 mm 4 m/S 757 mmHg 95%
06:00 +10°C° 0 mm 4 m/S 757 mmHg 95%
07:00 +10°C° 0 mm 4 m/S 757 mmHg 95%
08:00 +10°C° 0 mm 5 m/S 758 mmHg 90%
09:00 +12°C° 0 mm 5 m/S 758 mmHg 85%
10:00 +13°C° 0 mm 6 m/S 758 mmHg 81%
11:00 +14°C° 0 mm 6 m/S 758 mmHg 78%
12:00 +14°C° 0 mm 6 m/S 758 mmHg 75%
13:00 +15°C° 0 mm 6 m/S 759 mmHg 72%
14:00 +14°C° 0 mm 5 m/S 759 mmHg 74%
15:00 +14°C° 0 mm 4 m/S 759 mmHg 75%
16:00 +14°C° 0 mm 4 m/S 759 mmHg 76%
17:00 +13°C° 0.1 mm 3 m/S 759 mmHg 79%
18:00 +13°C° 0.1 mm 3 m/S 759 mmHg 81%
19:00 +13°C° 0.1 mm 3 m/S 759 mmHg 83%
20:00 +13°C° 0.1 mm 3 m/S 759 mmHg 84%
21:00 +13°C° 0.1 mm 4 m/S 759 mmHg 85%
22:00 +13°C° 0.1 mm 4 m/S 759 mmHg 85%
23:00 +12°C° 0 mm 4 m/S 759 mmHg 85%

Morgen, 25 Oktober, Sonntag

Zeit Temperatur Niederschläge Wind Luftdruck Luftfeuchtigkeit
00:00 +12°C° 0 mm 4 m/S 759 mmHg 84%
01:00 +12°C° 0 mm 4 m/S 759 mmHg 84%
02:00 +12°C° 0 mm 4 m/S 758 mmHg 86%
03:00 +10°C° 0 mm 5 m/S 758 mmHg 88%
04:00 +10°C° 0 mm 5 m/S 758 mmHg 90%
05:00 +9°C° 0 mm 5 m/S 758 mmHg 90%
06:00 +9°C° 0 mm 5 m/S 758 mmHg 90%
07:00 +9°C° 0 mm 5 m/S 758 mmHg 90%
08:00 +10°C° 0 mm 6 m/S 757 mmHg 84%
09:00 +13°C° 0 mm 6 m/S 757 mmHg 78%
10:00 +14°C° 0 mm 7 m/S 757 mmHg 72%
11:00 +15°C° 0 mm 7 m/S 757 mmHg 69%
12:00 +15°C° 0 mm 7 m/S 756 mmHg 65%
13:00 +16°C° 0 mm 7 m/S 756 mmHg 61%
14:00 +16°C° 0 mm 6 m/S 756 mmHg 64%
15:00 +15°C° 0 mm 6 m/S 755 mmHg 66%
16:00 +15°C° 0 mm 5 m/S 755 mmHg 69%
17:00 +14°C° 0 mm 5 m/S 755 mmHg 71%
18:00 +14°C° 0 mm 5 m/S 755 mmHg 73%
19:00 +13°C° 0 mm 5 m/S 755 mmHg 75%
20:00 +13°C° 0 mm 5 m/S 755 mmHg 76%
21:00 +13°C° 0 mm 5 m/S 754 mmHg 76%
22:00 +13°C° 0 mm 5 m/S 754 mmHg 76%
23:00 +13°C° 0 mm 5 m/S 754 mmHg 78%

übermorgen, 26 Oktober, Montag

Zeit Temperatur Niederschläge Wind Luftdruck Luftfeuchtigkeit
00:00 +12°C° 0 mm 4 m/S 754 mmHg 80%
01:00 +12°C° 0 mm 4 m/S 754 mmHg 82%
02:00 +12°C° 0 mm 3 m/S 754 mmHg 83%
03:00 +11°C° 0 mm 3 m/S 754 mmHg 85%
04:00 +11°C° 0 mm 3 m/S 754 mmHg 87%
05:00 +11°C° 0 mm 3 m/S 754 mmHg 87%
06:00 +12°C° 0 mm 2 m/S 754 mmHg 88%
07:00 +12°C° 0 mm 2 m/S 754 mmHg 88%
08:00 +12°C° 0 mm 2 m/S 754 mmHg 87%
09:00 +13°C° 0 mm 2 m/S 754 mmHg 85%
10:00 +13°C° 0 mm 2 m/S 754 mmHg 83%
11:00 +13°C° 0.2 mm 2 m/S 754 mmHg 84%
12:00 +12°C° 0.2 mm 3 m/S 754 mmHg 85%
13:00 +12°C° 0.2 mm 3 m/S 754 mmHg 85%
14:00 +12°C° 0.5 mm 2 m/S 753 mmHg 87%
15:00 +12°C° 0.5 mm 2 m/S 753 mmHg 89%
16:00 +12°C° 0.5 mm 2 m/S 753 mmHg 91%
17:00 +10°C° 0.3 mm 2 m/S 754 mmHg 91%
18:00 +10°C° 0.3 mm 2 m/S 754 mmHg 91%
19:00 +10°C° 0.3 mm 2 m/S 754 mmHg 91%
20:00 +10°C° 0 mm 2 m/S 754 mmHg 91%
21:00 +9°C° 0 mm 2 m/S 755 mmHg 91%
22:00 +9°C° 0 mm 2 m/S 755 mmHg 92%
23:00 +9°C° 0 mm 2 m/S 755 mmHg 92%

, 27 Oktober, Dienstag

Zeit Temperatur Niederschläge Wind Luftdruck Luftfeuchtigkeit
00:00 +9°C° 0 mm 2 m/S 755 mmHg 93%
01:00 +9°C° 0 mm 2 m/S 755 mmHg 93%
02:00 +8°C° 0 mm 2 m/S 755 mmHg 93%
03:00 +8°C° 0 mm 2 m/S 755 mmHg 93%
04:00 +8°C° 0 mm 2 m/S 755 mmHg 93%
05:00 +8°C° 0 mm 2 m/S 755 mmHg 92%
06:00 +8°C° 0 mm 3 m/S 756 mmHg 91%
07:00 +8°C° 0 mm 3 m/S 756 mmHg 90%
08:00 +9°C° 0 mm 3 m/S 756 mmHg 87%
09:00 +10°C° 0 mm 3 m/S 756 mmHg 83%
10:00 +11°C° 0 mm 3 m/S 756 mmHg 80%
11:00 +11°C° 0 mm 4 m/S 756 mmHg 77%
12:00 +12°C° 0 mm 4 m/S 756 mmHg 75%
13:00 +12°C° 0 mm 4 m/S 756 mmHg 72%
14:00 +12°C° 0 mm 4 m/S 756 mmHg 75%
15:00 +11°C° 0 mm 4 m/S 756 mmHg 77%
16:00 +11°C° 0 mm 4 m/S 756 mmHg 79%
17:00 +11°C° 0 mm 4 m/S 756 mmHg 81%
18:00 +10°C° 0 mm 4 m/S 756 mmHg 82%
19:00 +10°C° 0 mm 4 m/S 757 mmHg 84%
20:00 +8°C° 0 mm 4 m/S 757 mmHg 85%
21:00 +8°C° 0 mm 4 m/S 756 mmHg 86%
22:00 +7°C° 0 mm 4 m/S 756 mmHg 87%
23:00 +7°C° 0 mm 5 m/S 756 mmHg 87%

27 Oktober, Dienstag

Zeit Temperatur Niederschläge Wind Luftdruck Luftfeuchtigkeit
00:00 +9°C° 0 mm 2 m/S 755 mmHg 93%
01:00 +9°C° 0 mm 2 m/S 755 mmHg 93%
02:00 +8°C° 0 mm 2 m/S 755 mmHg 93%
03:00 +8°C° 0 mm 2 m/S 755 mmHg 93%
04:00 +8°C° 0 mm 2 m/S 755 mmHg 93%
05:00 +8°C° 0 mm 2 m/S 755 mmHg 92%
06:00 +8°C° 0 mm 3 m/S 756 mmHg 91%
07:00 +8°C° 0 mm 3 m/S 756 mmHg 90%
08:00 +9°C° 0 mm 3 m/S 756 mmHg 87%
09:00 +10°C° 0 mm 3 m/S 756 mmHg 83%
10:00 +11°C° 0 mm 3 m/S 756 mmHg 80%
11:00 +11°C° 0 mm 4 m/S 756 mmHg 77%
12:00 +12°C° 0 mm 4 m/S 756 mmHg 75%
13:00 +12°C° 0 mm 4 m/S 756 mmHg 72%
14:00 +12°C° 0 mm 4 m/S 756 mmHg 75%
15:00 +11°C° 0 mm 4 m/S 756 mmHg 77%
16:00 +11°C° 0 mm 4 m/S 756 mmHg 79%
17:00 +11°C° 0 mm 4 m/S 756 mmHg 81%
18:00 +10°C° 0 mm 4 m/S 756 mmHg 82%
19:00 +10°C° 0 mm 4 m/S 757 mmHg 84%
20:00 +8°C° 0 mm 4 m/S 757 mmHg 85%
21:00 +8°C° 0 mm 4 m/S 756 mmHg 86%
22:00 +7°C° 0 mm 4 m/S 756 mmHg 87%
23:00 +7°C° 0 mm 5 m/S 756 mmHg 87%

28 Oktober, Mittwoch

Zeit Temperatur Niederschläge Wind Luftdruck Luftfeuchtigkeit
00:00 +7°C° 0 mm 5 m/S 756 mmHg 86%
01:00 +7°C° 0 mm 5 m/S 756 mmHg 86%
02:00 +7°C° 0 mm 5 m/S 756 mmHg 86%
03:00 +5°C° 0 mm 6 m/S 756 mmHg 87%
04:00 +5°C° 0 mm 6 m/S 756 mmHg 87%
05:00 +7°C° 0 mm 6 m/S 756 mmHg 86%
06:00 +6°C° 0 mm 7 m/S 756 mmHg 85%
07:00 +6°C° 0 mm 7 m/S 756 mmHg 84%
08:00 +6°C° 0.2 mm 7 m/S 756 mmHg 83%
09:00 +8°C° 0.2 mm 7 m/S 756 mmHg 82%
10:00 +8°C° 0.2 mm 7 m/S 756 mmHg 81%
11:00 +9°C° 0.2 mm 7 m/S 756 mmHg 79%
12:00 +9°C° 0.2 mm 7 m/S 756 mmHg 78%
13:00 +10°C° 0.2 mm 6 m/S 756 mmHg 77%
14:00 +10°C° 0.1 mm 6 m/S 756 mmHg 78%
15:00 +9°C° 0.1 mm 6 m/S 756 mmHg 79%
16:00 +9°C° 0.1 mm 5 m/S 756 mmHg 80%
17:00 +9°C° 0 mm 5 m/S 756 mmHg 81%
18:00 +9°C° 0 mm 5 m/S 756 mmHg 83%
19:00 +8°C° 0 mm 5 m/S 756 mmHg 84%
20:00 +8°C° 0 mm 5 m/S 756 mmHg 84%
21:00 +8°C° 0 mm 6 m/S 756 mmHg 84%
22:00 +8°C° 0 mm 6 m/S 756 mmHg 85%
23:00 +8°C° 0 mm 6 m/S 756 mmHg 84%

29 Oktober, Donnerstag

Zeit Temperatur Niederschläge Wind Luftdruck Luftfeuchtigkeit
00:00 +8°C° 0 mm 6 m/S 756 mmHg 84%
01:00 +8°C° 0 mm 6 m/S 756 mmHg 84%
02:00 +8°C° 0 mm 6 m/S 756 mmHg 84%
03:00 +8°C° 0 mm 6 m/S 756 mmHg 85%
04:00 +8°C° 0 mm 6 m/S 755 mmHg 85%
05:00 +8°C° 0 mm 6 m/S 756 mmHg 85%
06:00 +8°C° 0 mm 6 m/S 756 mmHg 85%
07:00 +8°C° 0 mm 6 m/S 756 mmHg 85%
08:00 +9°C° 0 mm 6 m/S 756 mmHg 81%
09:00 +9°C° 0 mm 6 m/S 756 mmHg 77%
10:00 +10°C° 0 mm 7 m/S 757 mmHg 74%
11:00 +10°C° 0 mm 7 m/S 757 mmHg 72%
12:00 +11°C° 0 mm 7 m/S 757 mmHg 70%
13:00 +11°C° 0 mm 7 m/S 758 mmHg 68%
14:00 +11°C° 0 mm 6 m/S 758 mmHg 69%
15:00 +11°C° 0 mm 6 m/S 758 mmHg 70%
16:00 +10°C° 0 mm 5 m/S 759 mmHg 71%
17:00 +10°C° 0 mm 5 m/S 759 mmHg 74%
18:00 +9°C° 0 mm 5 m/S 759 mmHg 76%
19:00 +9°C° 0 mm 5 m/S 760 mmHg 78%
20:00 +9°C° 0 mm 5 m/S 760 mmHg 77%
21:00 +9°C° 0 mm 6 m/S 760 mmHg 76%
22:00 +9°C° 0 mm 6 m/S 760 mmHg 74%
23:00 +9°C° 0.2 mm 6 m/S 759 mmHg 76%
Mehr zeigen

Wir brauchen deine Erlaubnis

Meteoprog und unser Service Anbieter werden persönliche Daten aufbewahren, so wie Cookies, Geräte Bezeichnung oder ähnliche Technologien von deinem Gerät und Prozess, so wie Persönliche Daten Inhalte und Werbungen, genauso wie social Media und den Verkehr zu analysieren.

  • Aufbewahrung und/oder Zugang zu deiner Geräte Informationen.

    Cookies, Geräte Bezeichnung oder andere Informationen, können aufbewahrt oder Zugang zu deinem Gerät erhalten, für den Grund, der oben angegeben wird.

  • Personalisierte Werbung und Inhalte, Messungen, Einblick in das Publikum und Produkt Entwicklung.

    Werbungen und Inhalte können personalisiert werden, basierend auf ein Profil. Mehr Daten können besser personalisierte Werbungen und Inhalte hinzufügen. Werbung und Inhalte können gezeigt und gemessen werden. Einblicke über das Publikum, welche die Werbung gesehen haben und den Inhalt, können abgeleitet werden. So wie Daten können genutzt werden, um es zu verbessern oder die Benutzer Erfahrung zu verbessern das System und die Software.

Wenn du “Ich stimme zu” klickst, erlaubst du uns, die Cookies zu benutzen die Geräte Bezeichnung, den Web oder ähnliche Technologien zu benutzen. Deine Settings, können in deinem Gerät bei deinem Browser geändert werden.

Für den bestimmten Zweck, berechtigten Interessen beruhen darauf, mehr als auf den Inhalt. Du kannst mehr darüber in unseren Privaten und Cookie Politik lesen.